Kimball, NE

1:13 AM MDT on September 28, 2016 (GMT -0600)
Kimball Municipal-Arraj

Weather History for KIBM - February, 2014

Change the Weather History Date:

Saturday, February 22, 2014

  Actual Average (KSNY) Record (KSNY)
Temperature  
Mean Temperature 28 °F 34 °F  
Max Temperature 34 °F 47 °F 71 °F (1982)
Min Temperature 21 °F 20 °F -8 °F (2010)
Degree Days  
Heating Degree Days 38 31  
Month to date heating degree days 742  
Since 1 July heating degree days 4399  
Cooling Degree Days 0 0  
Month to date cooling degree days 0  
Year to date cooling degree days 0  
Moisture  
Dew Point 23 °F    
Average Humidity 87    
Maximum Humidity 93    
Minimum Humidity 60    
Precipitation  
Precipitation 0.09 in 0.02 in 0.18 in (1959)
Month to date precipitation 0.23  
Year to date precipitation 0.43  
Sea Level Pressure  
Sea Level Pressure 29.86 in    
Wind  
Wind Speed 5 mph (NNE)    
Max Wind Speed 16 mph    
Max Gust Speed -    
Visibility 7 miles    
Events Snow    
T = Trace of Precipitation, MM = Missing Value Source: NWS Daily Summary

Daily Weather History Graph

Daily Weather History Graph

Search for Another Location

Airport or City:

Trip Planner

Search our weather history database for the weather conditions in past years. The results will help you decide how hot, cold, wet, or windy it might be!

Date:

Astronomy

Feb. 22, 2014 Rise Set
Actual Time 7:39 AM CST 6:37 PM CST
Civil Twilight 7:11 AM CST 7:05 PM CST
Nautical Twilight 6:39 AM CST 7:37 PM CST
Astronomical Twilight 6:07 AM CST 8:09 PM CST
Moon 1:38 AM CST (2/22) 11:48 AM CST (2/22)
Length of Visible Light 11h 53m
Length of Day
10h 57m
Waning Gibbous, 50% of the Moon is Illuminated
Feb 22
Waning Gibbous
Mar 1
New
Mar 8
First Quarter
Mar 16
Full
Mar 23
Last Quarter

Hourly Weather History & Observations

Time (CST) Temp. Windchill Dew Point Humidity Pressure Visibility Wind Dir Wind Speed Gust Speed Precip Events Conditions
12:15 AM 25.5 °F 18.7 °F 22.6 °F 89% 29.87 in 10.0 mi NNW 5.8 mph - N/A   Clear
12:35 AM 25.3 °F 17.6 °F 22.1 °F 87% 29.86 in 10.0 mi NNW 6.9 mph - N/A   Clear
12:55 AM 24.8 °F 16.1 °F 21.9 °F 89% 29.86 in 10.0 mi NNW 8.1 mph - N/A   Clear
1:15 AM 24.8 °F 11.9 °F 21.9 °F 89% 29.83 in 10.0 mi North 16.1 mph - N/A   Clear
1:35 AM 24.6 °F 15.8 °F 21.9 °F 89% 29.83 in 10.0 mi NNW 8.1 mph - N/A   Clear
1:55 AM 24.6 °F 17.7 °F 21.9 °F 89% 29.84 in 10.0 mi NW 5.8 mph - N/A   Clear
2:15 AM 24.6 °F 17.7 °F 21.4 °F 87% 29.84 in 10.0 mi NW 5.8 mph - N/A   Clear
2:35 AM 24.1 °F 17.0 °F 20.3 °F 85% 29.84 in 10.0 mi WNW 5.8 mph - N/A   Clear
2:55 AM 24.3 °F 19.9 °F 20.3 °F 85% 29.84 in 10.0 mi WNW 3.5 mph - N/A   Clear
3:15 AM 23.7 °F 19.3 °F 19.4 °F 84% 29.83 in 10.0 mi WNW 3.5 mph - N/A   Clear
3:35 AM 23.5 °F 19.1 °F 19.2 °F 84% 29.83 in 10.0 mi WNW 3.5 mph - N/A   Scattered Clouds
3:55 AM 23.0 °F - 19.2 °F 85% 29.83 in 10.0 mi Calm Calm - N/A   Scattered Clouds
4:15 AM 22.8 °F 18.2 °F 18.9 °F 85% 29.82 in 10.0 mi WNW 3.5 mph - N/A   Scattered Clouds
4:35 AM 23.0 °F - 19.0 °F 85% 29.82 in 10.0 mi Calm Calm - N/A   Scattered Clouds
4:55 AM 22.5 °F - 19.0 °F 87% 29.83 in 10.0 mi Calm Calm - N/A   Clear
5:15 AM 22.6 °F - 19.2 °F 87% 29.83 in 10.0 mi Calm Calm - N/A   Clear
5:35 AM 21.9 °F 15.7 °F 18.5 °F 87% 29.84 in 10.0 mi SSW 4.6 mph - N/A   Clear
5:55 AM 21.2 °F 14.9 °F 18.5 °F 89% 29.85 in 10.0 mi South 4.6 mph - N/A   Clear
6:15 AM 21.7 °F 17.0 °F 19.0 °F 89% 29.85 in 10.0 mi SSW 3.5 mph - N/A   Clear
6:35 AM 22.1 °F 15.9 °F 19.6 °F 90% 29.85 in 10.0 mi SSW 4.6 mph - N/A   Clear
6:55 AM 22.1 °F 17.4 °F 19.4 °F 89% 29.84 in 10.0 mi South 3.5 mph - N/A   Clear
7:15 AM 22.5 °F 17.8 °F 19.8 °F 89% 29.84 in 10.0 mi South 3.5 mph - N/A   Scattered Clouds
7:35 AM 22.6 °F 16.5 °F 19.9 °F 89% 29.83 in 10.0 mi South 4.6 mph - N/A   Overcast
7:55 AM 23.4 °F 18.9 °F 20.7 °F 89% 29.83 in 10.0 mi South 3.5 mph - N/A   Overcast
8:15 AM 22.3 °F - 19.6 °F 89% 29.83 in 10.0 mi Calm Calm - N/A   Mostly Cloudy
8:35 AM 23.7 °F - 21.0 °F 89% 29.84 in 10.0 mi Calm Calm - N/A   Scattered Clouds
8:55 AM 25.3 °F - 21.7 °F 86% 29.85 in 10.0 mi Calm Calm - N/A   Clear
9:15 AM 25.9 °F 21.7 °F 21.9 °F 85% 29.85 in 10.0 mi SSE 3.5 mph - N/A   Scattered Clouds
9:35 AM 26.6 °F 21.2 °F 22.5 °F 84% 29.85 in 10.0 mi SSE 4.6 mph - N/A   Scattered Clouds
9:55 AM 27.5 °F 21.1 °F 22.8 °F 83% 29.84 in 10.0 mi South 5.8 mph - N/A   Mostly Cloudy
10:15 AM 28.4 °F 22.2 °F 23.0 °F 80% 29.85 in 10.0 mi South 5.8 mph - N/A   Overcast
10:35 AM 29.3 °F 22.3 °F 23.9 °F 80% 29.85 in 10.0 mi South 6.9 mph - N/A   Mostly Cloudy
10:55 AM 30.2 °F 25.4 °F 24.6 °F 80% 29.85 in 10.0 mi SSW 4.6 mph - N/A   Scattered Clouds
11:15 AM 30.7 °F 27.3 °F 25.0 °F 79% 29.85 in 10.0 mi SSW 3.5 mph - N/A   Overcast
11:35 AM 31.6 °F 28.3 °F 25.3 °F 78% 29.84 in 10.0 mi WSW 3.5 mph - N/A   Overcast
11:55 AM 32.0 °F - 25.0 °F 75% 29.84 in 10.0 mi Calm Calm - N/A   Scattered Clouds
12:15 PM 33.6 °F - 22.3 °F 63% 29.83 in 10.0 mi Calm Calm - N/A   Scattered Clouds
12:35 PM 33.6 °F - 22.1 °F 63% 29.83 in 10.0 mi Calm Calm - N/A   Mostly Cloudy
12:55 PM 34.0 °F 31.0 °F 21.6 °F 60% 29.82 in 10.0 mi North 3.5 mph - N/A   Overcast
1:20 PM 33.4 °F 30.4 °F 23.0 °F 66% 29.81 in 10.0 mi East 3.5 mph - N/A   Overcast
1:35 PM 32.9 °F - 23.4 °F 68% 29.81 in 10.0 mi Calm Calm - N/A   Overcast
1:55 PM 31.6 °F 22.1 °F 25.5 °F 78% 29.82 in 1.2 mi North 12.7 mph - N/A Snow Light Snow
2:15 PM 29.3 °F 22.3 °F 26.6 °F 90% 29.81 in 0.5 mi North 6.9 mph - N/A Snow Snow
2:35 PM 29.3 °F 24.3 °F 27.1 °F 92% 29.81 in 0.2 mi North 4.6 mph - N/A Snow Heavy Snow
2:55 PM 28.8 °F - 26.2 °F 90% 29.82 in 0.5 mi Calm Calm - N/A Snow Snow
3:15 PM 28.4 °F - 26.1 °F 91% 29.81 in 0.5 mi Calm Calm - N/A Snow Light Snow
3:35 PM 28.9 °F - 26.4 °F 90% 29.83 in 0.8 mi Calm Calm - N/A Snow Light Snow
3:55 PM 28.4 °F - 26.1 °F 91% 29.82 in 1.0 mi Calm Calm - N/A Snow Light Snow
4:15 PM 28.4 °F - 26.2 °F 92% 29.83 in 0.5 mi Calm Calm - N/A Snow Snow
4:35 PM 28.6 °F 24.8 °F 26.2 °F 91% 29.83 in 0.5 mi ESE 3.5 mph - 0.02 in Snow Snow
4:55 PM 28.4 °F 24.6 °F 26.1 °F 91% 29.83 in 0.8 mi East 3.5 mph - 0.04 in Snow Light Snow
5:15 PM 27.9 °F 24.0 °F 25.3 °F 90% 29.84 in 1.5 mi ESE 3.5 mph - 0.01 in Snow Light Snow
5:35 PM 27.9 °F 24.0 °F 25.5 °F 91% 29.84 in 1.0 mi East 3.5 mph - 0.01 in Snow Light Snow
5:55 PM 27.5 °F 23.6 °F 25.2 °F 91% 29.85 in 1.0 mi East 3.5 mph - 0.02 in Snow Light Snow
6:15 PM 27.1 °F - 24.8 °F 91% 29.86 in 1.5 mi Calm Calm - 0.01 in Snow Light Snow
6:35 PM 27.1 °F 23.2 °F 25.0 °F 92% 29.87 in 0.8 mi NNE 3.5 mph - 0.02 in Snow Light Snow
6:55 PM 27.0 °F - 24.8 °F 92% 29.88 in 2.0 mi Calm Calm - 0.02 in Snow Light Snow
7:15 PM 26.8 °F - 25.0 °F 93% 29.90 in 2.0 mi Calm Calm - N/A Snow Light Snow
7:35 PM 26.6 °F 22.6 °F 24.8 °F 93% 29.90 in 4.0 mi North 3.5 mph - 0.01 in Snow Light Snow
7:55 PM 26.4 °F - 24.3 °F 92% 29.91 in 3.0 mi Calm Calm - 0.01 in Snow Light Snow
8:15 PM 26.4 °F 20.9 °F 24.6 °F 93% 29.92 in 2.5 mi NE 4.6 mph - N/A Snow Light Snow
8:35 PM 26.4 °F 19.8 °F 24.6 °F 93% 29.94 in 7.0 mi NNE 5.8 mph - N/A Snow Light Snow
8:55 PM 25.7 °F 19.0 °F 23.9 °F 93% 29.94 in 7.0 mi NNE 5.8 mph - N/A   Overcast
9:15 PM 25.5 °F 17.8 °F 23.7 °F 93% 29.95 in 10.0 mi NE 6.9 mph - N/A Snow Light Snow
9:35 PM 25.2 °F 17.3 °F 23.0 °F 91% 29.96 in 10.0 mi NE 6.9 mph - N/A   Overcast
9:55 PM 24.8 °F 16.1 °F 23.0 °F 93% 29.97 in 10.0 mi NNE 8.1 mph - N/A   Overcast
10:15 PM 23.9 °F 14.2 °F 22.1 °F 93% 29.98 in 10.0 mi NE 9.2 mph - N/A   Overcast
10:35 PM 23.4 °F 13.5 °F 21.2 °F 91% 29.98 in 10.0 mi NE 9.2 mph - N/A   Overcast
10:55 PM 23.0 °F 13.1 °F 21.2 °F 93% 29.99 in 10.0 mi ENE 9.2 mph - N/A   Overcast
11:15 PM 22.8 °F 13.6 °F 21.0 °F 93% 29.98 in 5.0 mi ENE 8.1 mph - N/A   Overcast
11:35 PM 22.5 °F 12.4 °F 20.8 °F 93% 29.98 in 3.0 mi East 9.2 mph - N/A   Overcast
11:55 PM 22.1 °F 12.0 °F 20.3 °F 93% 29.98 in 7.0 mi East 9.2 mph - N/A   Overcast